This demonstration page uses our WeatherBlox Daily Observations layout. Learn more.

Left ArrowRight Arrow

Hourly Observations for December 8, 2021

Temp ( °F °C ) Dew Point ( °F °C ) Humidity (%) Winds ( mph kmh ) Pressure ( in mb ) Visibility ( mi km ) Precip ( " mm )
12:53 am 00:53 Cloudy 16 -8.9 12 -11.1 84 84 ESE 7 11 29.71 1006 10 16 N/A
1:53 am 01:53 Mostly Cloudy 16 -8.9 12 -11.1 84 84 E 7 11 29.66 1005 10 16 N/A
2:53 am 02:53 Cloudy 15 -9.4 12 -11.1 88 88 E 9 15 29.62 1003 10 16 N/A
3:53 am 03:53 Clear 17 -8.3 13 -10.6 84 84 ENE 6 9 29.59 1002 10 16 N/A
4:53 am 04:53 Clear 39 3.9 30 -1.1 70 70 SW 22 35 29.51 999 10 16 N/A
5:53 am 05:53 Clear 39 3.9 31 -0.6 73 73 SW 25 41 29.47 998 10 16 N/A
6:53 am 06:53 Clear 39 3.9 30 -1.1 70 70 SW 25 41 29.42 996 10 16 N/A
7:53 am 07:53 Clear 38 3.3 30 -1.1 73 73 WSW 24 39 29.41 996 10 16 N/A
8:53 am 08:53 Sunny 37 2.8 30 -1.1 76 76 WSW 20 31 29.40 996 10 16 N/A
9:53 am 09:53 Sunny 38 3.3 31 -0.6 76 76 SSW 21 33 29.40 996 10 16 N/A
10:53 am 10:53 Sunny 39 3.9 30 -1.1 70 70 WSW 18 30 29.38 995 10 16 N/A
11:53 am 11:53 Partly Cloudy 39 3.9 31 -0.6 73 73 SW 15 24 29.36 994 10 16 N/A
12:53 pm 12:53 Cloudy 39 3.9 31 -0.6 73 73 WSW 14 22 29.35 994 10 16 N/A
1:53 pm 13:53 Cloudy 39 3.9 32 undefined 76 76 WSW 10 17 29.34 994 10 16 N/A
2:53 pm 14:53 Cloudy 40 4.4 33 0.6 77 77 WSW 12 19 29.33 993 10 16 N/A
3:53 pm 15:53 Cloudy 42 5.6 30 -1.1 62 62 W 18 30 29.33 993 10 16 N/A
4:53 pm 16:53 Cloudy 40 4.4 30 -1.1 68 68 WNW 15 24 29.34 994 10 16 N/A
5:53 pm 17:53 Cloudy 38 3.3 30 -1.1 73 73 WNW 18 30 29.37 995 10 16 N/A
6:53 pm 18:53 Mostly Clear 38 3.3 29 -1.7 70 70 W 22 35 29.38 995 10 16 N/A
7:25 pm 19:25 Cloudy 38 3.3 29 -1.7 70 70 W 21 33 29.42 996 10 16 N/A
7:53 pm 19:53 Cloudy 37 2.8 28 -2.2 70 70 W 15 24 29.42 996 10 16 N/A
8:49 pm 20:49 Cloudy 36 2 30 -1 81 81 W 22 35 29.50 999 10 16 N/A
8:53 pm 20:53 Cloudy 36 2.2 29 -1.7 76 76 W 20 31 29.47 998 10 16 N/A
9:31 pm 21:31 Cloudy with Light Snow 33 0.6 31 -0.6 92 92 WNW 15 24 29.53 1000 2 3 0.00 0.00
9:39 pm 21:39 Cloudy with Light Snow 33 0.6 32 undefined 96 96 WNW 17 28 29.54 1000 1 2 0.01 0.25
9:42 pm 21:42 Cloudy with Light Snow 34 1 32 undefined 93 93 WNW 17 28 29.54 1000 1 1 N/A
9:53 pm 21:53 Cloudy with Snow 32 undefined 32 undefined 100 100 WNW 15 24 29.52 1000 1 1 0.03 0.76
10:01 pm 22:01 Cloudy with Light Snow 31 -0.6 27 -2.8 85 85 N 14 22 29.57 1002 2 3 0.00 0.00
10:03 pm 22:03 Cloudy with Light Snow 31 -0.6 26 -3.3 82 82 NNW 13 20 29.57 1002 3 5 0.01 0.25
10:13 pm 22:13 Cloudy 30 -1.1 24 -4.4 79 79 NNW 13 20 29.59 1002 10 16 0.01 0.25
10:29 pm 22:29 Cloudy 30 -1 23 -5 75 75 NNW 10 17 29.61 1003 10 16 N/A
10:53 pm 22:53 Cloudy 30 -1.1 23 -5 75 75 NW 12 19 29.58 1002 10 16 0.01 0.25
11:39 pm 23:39 Cloudy with Light Snow 29 -1.7 24 -4.4 82 82 NW 18 30 29.69 1005 3 4 0.00 0.00
11:53 pm 23:53 Cloudy with Light Snow 28 -2.2 24 -4.4 85 85 NNW 10 17 29.63 1004 2 2 0.00 0.00

Powered by AerisWeather